CW3467 Sant Marti de Canals ES current weather conditions

sailwx.info

Wind from 328 at 1 knots gusting 8

Air temperature 17.2° C
Dewpoint -3.0° C

Last reported at 2015-Apr-28 10:52 UTC.
Time now 2015-Apr-28 11:50 UTC

Location: N 42°14' E 000°59'.
View on Google Maps.

See reports from other nearby stations

  
Tides and Currents Weather Stations Pressure Air Temp Water Temp Dewpoint Dewpoint Depression Visibility Wind Speed Wind Dir Waves Ship Positions
date/time (UTC)wind fromknots sea level pressurealtimeterstation pressurevisibilityair tempwater tempwave heightnotes
2015-Apr-28 10:52 328 1 gusting 8 17.2
2015-Apr-28 10:37 350 4 gusting 7 16.7
2015-Apr-28 10:22 020 3 gusting 7 16.7
2015-Apr-28 10:07 340 3 gusting 13 16.1
2015-Apr-28 09:52 013 4 gusting 9 15.6
2015-Apr-28 09:37 033 6 gusting 11 15.0
2015-Apr-28 09:22 359 6 gusting 13 15.0
2015-Apr-28 09:07 347 6 gusting 13 14.4
2015-Apr-28 08:52 356 6 gusting 11 13.9
2015-Apr-28 08:37 006 4 gusting 7 13.9
2015-Apr-28 08:22 353 4 gusting 9 13.3
2015-Apr-28 08:07 009 3 gusting 13 12.8
2015-Apr-28 07:52 340 6 gusting 11 12.8
2015-Apr-28 07:37 020 6 gusting 12 12.2
2015-Apr-28 07:22 348 6 gusting 11 12.2
2015-Apr-28 07:07 012 4 gusting 11 11.7
2015-Apr-28 06:52 075 2 gusting 6 11.1
2015-Apr-28 06:36 084 1 gusting 13 10.6
2015-Apr-28 06:21 026 1 gusting 7 10.0
2015-Apr-28 06:06 335 2 gusting 7 9.4
2015-Apr-28 05:51 345 2 gusting 6 8.3
2015-Apr-28 05:36 290 0 gusting 5 8.9
2015-Apr-28 05:21 338 0 gusting 8 10.0
2015-Apr-28 05:06 011 3 gusting 8 10.0
2015-Apr-28 04:51 342 4 gusting 7 10.0
2015-Apr-28 04:36 008 1 gusting 5 10.0
2015-Apr-28 04:21 034 2 gusting 6 10.0
2015-Apr-28 04:06 359 2 gusting 11 10.0
2015-Apr-28 03:51 044 3 gusting 9 10.0
2015-Apr-28 03:36 054 3 gusting 10 10.0
2015-Apr-28 03:21 342 3 gusting 10 10.0
2015-Apr-28 03:06 015 3 gusting 9 10.0
2015-Apr-28 02:51 060 5 gusting 11 10.0
2015-Apr-28 02:36 343 6 gusting 12 10.6
2015-Apr-28 02:21 349 6 gusting 9 10.0
2015-Apr-28 02:06 029 1 gusting 6 10.0
2015-Apr-28 01:51 001 10.6
2015-Apr-28 01:36 063 3 gusting 6 10.6
2015-Apr-28 01:21 003 0 gusting 6 10.6
2015-Apr-28 01:06 006 1 gusting 6 10.6
2015-Apr-28 00:51 340 0 gusting 5 10.6
2015-Apr-28 00:36 340 5 gusting 7 11.1
2015-Apr-28 00:21 075 4 gusting 7 11.1
2015-Apr-28 00:06 032 2 gusting 6 11.1
2015-Apr-27 23:51 049 3 gusting 6 11.1
2015-Apr-27 23:36 029 0 gusting 2 11.1
2015-Apr-27 23:21 049 11.1
2015-Apr-27 23:05 358 1 gusting 4 11.1
2015-Apr-27 22:50 041 1 gusting 4 11.1
2015-Apr-27 22:35 038 0 gusting 3 11.7
2015-Apr-27 22:20 001 1 gusting 4 11.7
2015-Apr-27 22:05 339 0 gusting 5 11.7
2015-Apr-27 21:50 036 2 gusting 6 11.7
2015-Apr-27 21:35 058 3 gusting 6 12.2
2015-Apr-27 21:20 352 3 gusting 7 12.2
2015-Apr-27 21:05 049 1 gusting 6 12.2
2015-Apr-27 20:50 043 1 gusting 5 12.2
2015-Apr-27 20:35 049 3 gusting 10 12.8
2015-Apr-27 20:20 020 2 gusting 6 12.8
2015-Apr-27 20:05 045 2 gusting 6 12.8
2015-Apr-27 19:51 037 2 gusting 8 13.3
2015-Apr-27 19:35 046 2 gusting 10 13.3
2015-Apr-27 19:20 001 3 gusting 6 13.3
2015-Apr-27 19:05 012 4 gusting 6 13.9
2015-Apr-27 18:50 015 2 gusting 9 14.4
2015-Apr-27 18:35 061 4 gusting 6 15.0
2015-Apr-27 18:20 001 3 gusting 9 16.1
2015-Apr-27 18:05 356 1 gusting 7 16.7
2015-Apr-27 17:50 318 7 gusting 16 17.2
2015-Apr-27 17:35 021 2 gusting 6 17.2
2015-Apr-27 17:20 300 6 gusting 14 17.2
2015-Apr-27 17:05 348 4 gusting 13 17.8
2015-Apr-27 16:49 344 7 gusting 15 17.2
2015-Apr-27 16:34 335 6 gusting 13 17.8
2015-Apr-27 16:19 332 4 gusting 9 17.8
2015-Apr-27 16:04 359 6 gusting 13 18.3
2015-Apr-27 15:49 340 6 gusting 13 17.8
2015-Apr-27 15:34 318 6 gusting 11 17.8
2015-Apr-27 15:19 319 5 gusting 8 17.8
2015-Apr-27 15:04 008 3 gusting 11 17.8
2015-Apr-27 14:49 096 2 gusting 6 17.2
2015-Apr-27 14:34 231 16.7
2015-Apr-27 14:19 248 4 gusting 9 17.2
2015-Apr-27 14:04 222 2 gusting 4 18.3
2015-Apr-27 13:50 317 17.2
2015-Apr-27 13:34 036 17.2
2015-Apr-27 13:19 264 0 gusting 3 17.2
2015-Apr-27 13:04 221 1 gusting 6 17.8
2015-Apr-27 12:49 271 4 gusting 7 17.8
2015-Apr-27 12:34 207 4 gusting 8 17.2
2015-Apr-27 12:19 148 4 gusting 7 15.6
2015-Apr-27 12:04 145 5 gusting 8 15.6
2015-Apr-27 11:49 153 3 gusting 6 15.6
2015-Apr-27 11:34 222 2 gusting 5 15.6
2015-Apr-27 11:19 219 1 gusting 3 15.0
2015-Apr-27 11:04 219 0 gusting 5 14.4
2015-Apr-27 10:49 212 14.4
2015-Apr-27 10:34 231 13.9
2015-Apr-27 10:19 143 13.3
2015-Apr-27 10:04 239 13.3
2015-Apr-27 09:49 224 12.8
2015-Apr-27 09:34 286 12.2
2015-Apr-27 09:19 329 12.2
2015-Apr-27 09:04 222 12.2
2015-Apr-27 08:49 229 12.2
2015-Apr-27 08:33 240 11.7
2015-Apr-27 08:18 230 11.7
2015-Apr-27 08:03 160 11.1
2015-Apr-27 07:48 122 10.6
2015-Apr-27 07:33 348 10.0
2015-Apr-27 07:18 281 10.0
2015-Apr-27 07:03 290 10.0
2015-Apr-27 06:48 135 10.6
2015-Apr-27 06:33 295 9.4
2015-Apr-27 06:18 295 8.9
2015-Apr-27 06:03 106 8.9
2015-Apr-27 05:48 106 8.9
2015-Apr-27 05:33 107 8.9
2015-Apr-27 05:18 039 8.9
2015-Apr-27 05:03 338 8.9
2015-Apr-27 04:48 338 9.4
2015-Apr-27 04:33 343 9.4
2015-Apr-27 04:18 080 9.4
2015-Apr-27 04:03 098 9.4
2015-Apr-27 03:48 201 9.4
2015-Apr-27 03:33 115 10.0
2015-Apr-27 03:18 210 0 gusting 2 10.0
2015-Apr-27 03:03 148 10.6
2015-Apr-27 02:48 134 1 gusting 3 10.6
2015-Apr-27 02:33 152 1 gusting 4 10.6
2015-Apr-27 02:18 126 2 gusting 6 10.6
2015-Apr-27 02:03 128 0 gusting 1 10.6
2015-Apr-27 01:48 207 11.1
2015-Apr-27 01:33 276 11.1
2015-Apr-27 01:18 249 11.1
2015-Apr-27 01:03 242 11.1
2015-Apr-27 00:48 273 11.1
2015-Apr-27 00:33 238 11.7
2015-Apr-27 00:18 238 11.7
2015-Apr-27 00:03 141 11.7
2015-Apr-26 23:48 117 0 gusting 5 11.7
2015-Apr-26 23:33 152 2 gusting 4 11.7
2015-Apr-26 23:18 134 3 gusting 5 11.7
2015-Apr-26 23:02 143 3 gusting 5 11.7
2015-Apr-26 22:47 191 0 gusting 3 11.7
2015-Apr-26 22:32 128 12.2
2015-Apr-26 22:17 112 1 gusting 2 12.2
2015-Apr-26 22:02 101 12.2
2015-Apr-26 21:47 119 12.2
2015-Apr-26 21:32 115 12.2
2015-Apr-26 21:17 043 12.2
2015-Apr-26 21:02 267 12.8
2015-Apr-26 20:47 344 12.8
2015-Apr-26 20:32 238 12.8
2015-Apr-26 20:17 124 1 gusting 3 12.8
2015-Apr-26 20:02 123 1 gusting 3 12.8
2015-Apr-26 19:47 200 0 gusting 3 13.3
2015-Apr-26 19:32 113 1 gusting 2 12.8
2015-Apr-26 19:17 103 1 gusting 2 13.3
2015-Apr-26 19:02 117 1 gusting 3 13.3
2015-Apr-26 18:47 242 1 gusting 5 13.3
2015-Apr-26 18:32 162 1 gusting 6 13.9
2015-Apr-26 18:17 200 2 gusting 6 13.9
2015-Apr-26 18:02 156 0 gusting 3 13.9
2015-Apr-26 17:47 212 13.9
2015-Apr-26 17:32 225 1 gusting 4 13.9
2015-Apr-26 17:17 228 14.4
2015-Apr-26 17:02 242 14.4
2015-Apr-26 16:47 285 14.4
2015-Apr-26 16:32 269 15.0
2015-Apr-26 16:17 280 15.0
2015-Apr-26 16:02 240 15.0
2015-Apr-26 15:47 233 15.6
2015-Apr-26 15:32 226 15.6
2015-Apr-26 15:17 285 15.0
2015-Apr-26 15:02 278 14.4
2015-Apr-26 14:47 266 15.0
2015-Apr-26 14:32 280 15.6
2015-Apr-26 14:17 262 15.0
2015-Apr-26 14:02 274 15.0
2015-Apr-26 13:47 224 13.3
2015-Apr-26 13:32 203 13.3
2015-Apr-26 13:17 139 13.3
2015-Apr-26 13:02 221 13.9
2015-Apr-26 12:47 232 13.9
2015-Apr-26 12:32 271 13.9
2015-Apr-26 12:17 271 13.3
2015-Apr-26 12:02 259 0 gusting 1 13.3
2015-Apr-26 11:47 229 12.8
2015-Apr-26 11:32 218 12.2
2015-Apr-26 11:17 228 12.2
2015-Apr-26 11:01 226 12.2